EW7448 Weather Reports


Display with metric or nautical units.
time (UTC)temp
F
wind
direction
speed
MPH
gust
MPH
rain 1hr
in
rain 24hr
in
rain mn
in
humidity
%
barometer
mb
20260503221557 73 57 2.0 7.0 0.00 0.23 0.23 81 1013.3
20260503220101 74 60 0.0 3.0 0.00 0.23 0.23 81 1013.4
20260503214551 74 34 1.0 7.0 0.00 0.23 0.23 80 1013.3
20260503213050 74 1 0.0 8.0 0.00 0.23 0.23 82 1013.3
20260503211548 73 53 0.0 8.0 0.00 0.23 0.23 82 1013.4
20260503210054 73 55 0.0 6.0 0.00 0.23 0.23 82 1013.5
20260503204601 73 43 1.0 6.0 0.00 0.23 0.23 81 1013.7
20260503203051 73 18 1.0 5.0 0.00 0.23 0.23 82 1013.9
20260503201546 73 55 1.0 6.0 0.00 0.23 0.23 82 1013.9
20260503200047 73 53 1.0 8.0 0.00 0.23 0.23 82 1013.9
20260503194556 74 56 3.0 9.0 0.00 0.23 0.23 82 1013.9
20260503193043 74 23 2.0 9.0 0.00 0.23 0.23 82 1013.9
20260503191543 73 2 4.0 10.0 0.00 0.23 0.23 83 1014.1
20260503190046 73 2 2.0 11.0 0.00 0.23 0.23 85 1014.4
20260503184536 72 50 2.0 9.0 0.00 0.23 0.23 86 1014.7
20260503183036 72 349 4.0 9.0 0.00 0.23 0.23 86 1015.0
20260503181535 72 347 2.0 8.0 0.00 0.23 0.23 86 1015.2
20260503180034 72 51 4.0 10.0 0.00 0.23 0.23 86 1015.3
20260503174533 71 46 3.0 9.0 0.00 0.23 0.23 88 1015.3
20260503173051 72 47 3.0 8.0 0.00 0.23 0.23 88 1015.2
20260503171533 72 76 3.0 10.0 0.00 0.23 0.23 87 1015.2
20260503100104 68 349 0.0 4.0 0.14 0.19 0.19 96 1012.3
20260503081551 70 359 0.0 5.0 0.01 0.01 0.01 94 1012.1
20260503071541 70 339 0.0 1.0 0.00 0.00 0.00 93 1011.4
20260503054535 71 269 0.0 1.0 0.00 0.00 0.00 93 1011.8
20260503053028 71 282 0.0 2.0 0.00 0.00 0.00 93 1012.0
20260503051525 72 297 0.0 1.0 0.00 0.00 0.00 93 1012.0
20260503050025 72 298 0.0 1.0 0.00 0.00 0.00 93 1012.0
20260503044535 72 282 0.0 1.0 0.00 0.00 0.00 93 1011.8
20260503043017 72 282 0.0 1.0 0.00 0.00 0.00 92 1011.5
20260503041513 72 281 0.0 1.0 0.00 0.00 0.00 92 1011.4
20260503040009 73 281 0.0 1.0 0.00 0.00 0.00 91 1011.4
20260503034508 73 291 0.0 2.0 0.00 0.00 0.00 91 1011.5
20260503033007 73 252 0.0 4.0 0.00 0.00 0.00 90 1011.3
20260503031504 74 289 0.0 3.0 0.00 0.00 0.00 91 1011.1
20260503030004 73 295 1.0 4.0 0.00 0.00 0.00 91 1010.4
20260503024609 73 177 0.0 2.0 0.00 0.00 0.00 90 1009.7
20260503023059 74 231 0.0 0.0 0.00 0.00 0.00 89 1009.8
20260503021600 74 231 0.0 4.0 0.00 0.00 0.00 88 1009.4
20260503020104 75 193 2.0 6.0 0.00 0.00 0.00 87 1009.2
20260503014559 76 226 1.0 5.0 0.00 0.00 0.00 85 1009.1
20260503013056 76 175 0.0 3.0 0.00 0.00 0.00 82 1009.1
20260503011606 76 203 0.0 3.0 0.00 0.00 0.00 82 1009.2
20260503010058 77 173 0.0 2.0 0.00 0.00 0.00 81 1009.3
20260503004555 77 201 0.0 1.0 0.00 0.00 0.00 81 1009.3
20260503003054 77 210 0.0 3.0 0.00 0.00 0.00 82 1009.2
20260503001555 77 188 0.0 2.0 0.00 0.00 0.00 82 1009.7
20260503000108 77 292 0.0 3.0 0.00 0.00 0.00 80 1009.3
20260502234552 78 297 1.0 7.0 0.00 0.00 0.00 78 1009.7
20260502233050 78 283 1.0 6.0 0.00 0.00 0.00 74 1009.7
20260502231613 79 299 1.0 6.0 0.00 0.00 0.00 72 1009.6
20260502230050 80 248 0.0 2.0 0.00 0.00 0.00 70 1008.9
20260502224556 80 293 0.0 4.0 0.00 0.00 0.00 70 1008.7
20260502223049 80 311 1.0 6.0 0.00 0.00 0.00 69 1008.4